Flag for U.S.A. Weather past 2 weeks in Cincinnati, Ohio, U.S.A.

Now
72 °F

Fog.


Feels Like: 65 °F
Forecast: 71 / 89 °F
Wind: No wind

Location: Cincinnati Municipal Airport Lunken Field

Current Time: Jul 29, 2015 at 5:55:28 AM

Latest Report: Jul 29, 2015 at 5:03 AM


Visibility: 1 mi

Pressure: 29.97 "Hg

Humidity: 100%

Dew point: 72 °F

Location of CincinnatiLocation

Historic Weather in Cincinnati — Graph

°F

Cincinnati temperature yesterday

Maximum temperature yesterday: 90 °F (at 4:53 PM)
Minimum temperature yesterday: 70 °F (at 2:59 AM)
Average temperature yesterday: 79 °F

Past Weeks' High & Low Weather Summary

 TemperatureHumidityPressure
High91 °F (Jul 18, 3:53 PM)100% (Jul 16, 2:53 AM)30.06 "Hg (Jul 16, 2:53 AM)
Low58 °F (Jul 22, 5:53 AM)38% (Jul 24, 5:53 PM)29.54 "Hg (Jul 14, 3:53 PM)
Average75 °F80%29.92 "Hg
* Reported Jul 14 4:53 AM — Jul 29 4:01 AM, Cincinnati, Weather by CustomWeather, © 2015

Note: Actual official high and low records may vary slightly from our data, if they occured in-between our weather recording intervals... More about our weather records

Advertising

Cincinnati weather history for previous 24 hours

 ConditionsComfort  
Time TempWeatherWind HumidityBarometerVisibility
4:01 AM
Wed, Jul 29
72 °FLight rain. Fog.No wind100%29.95 "Hg2 mi
3:04 AM72 °FFog.No wind100%29.96 "Hg3 mi
2:53 AM73 °FFog.No wind100%29.95 "Hg2 mi
2:00 AM73 °FFog.No wind100%29.97 "Hg4 mi
12:53 AM75 °FFog.No wind100%29.97 "Hg5 mi
11:53 PM
Tue, Jul 28
76 °FFog.3 mph97%29.98 "Hg6 mi
10:53 PM78 °FPassing clouds.3 mph93%29.98 "Hg9 mi
9:53 PM77 °FClear.No wind94%29.93 "Hg10 mi
8:53 PM81 °FScattered clouds.No wind85%29.91 "Hg10 mi
7:53 PM86 °FPartly sunny.3 mph67%29.90 "Hg10 mi
6:53 PM89 °FBroken clouds.8 mph63%29.91 "Hg10 mi
5:53 PM89 °FScattered clouds.No wind57%29.92 "Hg10 mi
4:53 PM90 °FScattered clouds.No wind59%29.92 "Hg10 mi
3:53 PM87 °FBroken clouds.No wind65%29.94 "Hg10 mi
2:53 PM88 °FPartly sunny.No wind59%29.95 "Hg10 mi
1:53 PM86 °FScattered clouds.6 mph65%29.97 "Hg10 mi
12:53 PM86 °FSunny.No wind63%29.98 "Hg10 mi
11:53 AM86 °FSunny.No wind70%29.98 "Hg10 mi
10:53 AM83 °FScattered clouds.3 mph79%29.98 "Hg8 mi
9:53 AM79 °FSunny.No wind84%29.99 "Hg8 mi
8:53 AM74 °FFog.5 mph97%29.99 "Hg5 mi
7:53 AM71 °FFog.3 mph100%30.00 "Hg4 mi
6:53 AM70 °FFog.No wind100%29.98 "Hg1 mi
5:53 AM70 °FFog.No wind100%29.97 "Hg0 mi
Weather by CustomWeather, © 2015

See weather overviewHow to use our weather pages